Weather History for Tapachula Airport, Mexico

Change the Weather History Date:

Wednesday, March 20, 2013

  Actual Average Record
Temperature  
Mean Temperature 82 °F -  
Max Temperature 89 °F 88 °F 93 °F (2005)
Min Temperature 75 °F 73 °F 73 °F (2002)
Cooling Degree Days 17    
Growing Degree Days 32 (Base 50)    
Moisture  
Dew Point 74 °F    
Average Humidity 79    
Maximum Humidity 89    
Minimum Humidity 59    
Precipitation  
Precipitation 0.00 in - - ()
Sea Level Pressure  
Sea Level Pressure 29.87 in    
Wind  
Wind Speed 3 mph ()    
Max Wind Speed 12 mph    
Max Gust Speed -    
Visibility 8.0 miles    
Events      
Averages and records for this station are not official NWS values.
T = Trace of Precipitation, MM = Missing Value Source: Averaged Metar Reports

Daily Weather History Graph

Daily Weather History Graph

Search for Another Location

Airport:

Trip Planner

Search our weather history database for the weather conditions in past years. The results will help you decide how hot, cold, wet, or windy it might be!

Date:

Astronomy

Mar. 20, 2013 Rise Set
Actual Time 6:13 AM CST 6:20 PM CST
Civil Twilight 5:52 AM CST 6:41 PM CST
Nautical Twilight 5:27 AM CST 7:06 PM CST
Astronomical Twilight 5:02 AM CST 7:31 PM CST
Moon 12:44 PM CST 1:03 AM CST
Length of Visible Light 12h 49m
Length of Day
12h 07m
First Quarter, 60% of the Moon is Illuminated
Mar 20
First Quarter
Mar 27
Full
Apr 2
Last Quarter
Apr 10
New
Apr 18
First Quarter

Hourly Weather History & Observations

Time (CST) Temp. Heat Index Dew Point Humidity Pressure Visibility Wind Dir Wind Speed Gust Speed Precip Events Conditions
12:40 AM 77.0 °F - 73.4 °F 89% 29.94 in 10.0 mi Calm Calm - N/A   Clear
1:40 AM 77.0 °F - 73.4 °F 89% 29.94 in 10.0 mi Calm Calm - N/A   Clear
2:40 AM 77.0 °F - 73.4 °F 89% 29.86 in 10.0 mi Calm Calm - N/A   Clear
4:40 AM 75.2 °F - 71.6 °F 89% 29.89 in 10.0 mi Calm Calm - N/A   Clear
5:45 AM 75.2 °F - 71.6 °F 89% 29.85 in 10.0 mi Calm Calm - N/A   Clear
6:40 AM 75.2 °F - 71.6 °F 89% 29.90 in 10.0 mi Calm Calm - N/A   Clear
7:47 AM 77.0 °F - 73.4 °F 89% 29.90 in 7.0 mi Calm Calm - N/A   Clear
8:40 AM 80.6 °F 85.4 °F 73.4 °F 79% 29.88 in 7.0 mi WNW 8.1 mph - N/A   Clear
9:40 AM 82.4 °F 88.2 °F 73.4 °F 74% 29.92 in 7.0 mi WNW 9.2 mph - N/A   Clear
10:40 AM 87.8 °F 95.6 °F 73.4 °F 62% 29.92 in 7.0 mi West 11.5 mph - N/A   Clear
11:40 AM 89.6 °F 99.8 °F 75.2 °F 62% 29.86 in 7.0 mi West 11.5 mph - N/A   Clear
12:41 PM 87.8 °F 95.6 °F 73.4 °F 62% 29.85 in 7.0 mi West 11.5 mph - N/A   Clear
1:40 PM 89.6 °F 98.2 °F 73.4 °F 59% 29.83 in 7.0 mi WSW 11.5 mph - N/A   Clear
2:40 PM 86.0 °F 93.4 °F 73.4 °F 66% 29.83 in 7.0 mi WSW 11.5 mph - N/A   Clear
3:40 PM 86.0 °F 95.1 °F 75.2 °F 70% 29.80 in 7.0 mi WSW 11.5 mph - N/A   Clear
4:40 PM 84.2 °F 90.9 °F 73.4 °F 70% 29.80 in 7.0 mi WSW 11.5 mph - N/A   Partly Cloudy
6:40 PM 82.4 °F 89.5 °F 75.2 °F 79% 29.85 in 7.0 mi Calm Calm - N/A   Partly Cloudy
7:40 PM 80.6 °F 86.2 °F 75.2 °F 84% 29.87 in 7.0 mi Calm Calm - N/A   Partly Cloudy
8:40 PM 80.6 °F 86.2 °F 75.2 °F 84% 29.90 in 7.0 mi Calm Calm - N/A   Partly Cloudy
9:40 PM 78.8 °F - 75.2 °F 89% 29.90 in 8.0 mi Calm Calm - N/A   Scattered Clouds
10:40 PM 78.8 °F - 75.2 °F 89% 29.90 in 8.0 mi Calm Calm - N/A   Scattered Clouds
11:40 PM 78.8 °F - 75.2 °F 89% 29.83 in 8.0 mi Calm Calm - N/A   Scattered Clouds